Location: Baia de Cri?
(46.1667°N, 22.7167°E)
Time: 21:49:11
(UTC+00:00)

NOSS 8 (H) - Pass Details

Date: 15 January 2026
Orbit: 355 x 1517 km, 63.3° (Epoch: 10 February)

Event Time Altitude Azimuth Distance (km) Brightness Sun altitude
Exits shadow 05:03:59 15° 315° (NW) 1,132 5.9 -10.8°
Maximum altitude 05:06:19 70° 233° (SW) 441 4.2 -10.5°
Drops below altitude 10° 05:09:51 10° 149° (SSE) 1,650 8.1 -9.9°
Sets 05:12:15 0° 147° (SSE) 2,686 9.3 -9.5°
